This demonstration page uses our WeatherBlox Daily Observations layout. Learn more.

Left ArrowRight Arrow

39.12711, -84.51439

Hourly Observations for September 8, 2016

Temp ( °F °C ) Dew Point ( °F °C ) Humidity (%) Winds ( mph kmh ) Pressure ( in mb ) Visibility ( mi km ) Precip ( " mm )
12:53 am 00:53 Clear 71 21.7 70 21.1 96 96 Calm 30.03 1017 10 16 0.00 0.00
1:53 am 01:53 Clear 70 21.1 70 21.1 100 100 Calm 30.02 1017 9 14 0.00 0.00
2:53 am 02:53 Clear 69 20.6 69 20.6 100 100 Calm 30.01 1016 8 13 0.00 0.00
3:53 am 03:53 Clear with Mist and Fog 69 20.6 69 20.6 100 100 Calm 30.00 1016 5 8 0.00 0.00
4:53 am 04:53 Clear with Mist and Fog 69 20.6 69 20.6 100 100 Calm 29.99 1016 6 10 0.00 0.00
5:53 am 05:53 Clear 70 21.1 70 21.1 100 100 Calm 29.99 1016 7 11 0.00 0.00
6:53 am 06:53 Clear 70 21.1 69 20.6 97 97 Calm 30.00 1016 10 16 0.00 0.00
7:53 am 07:53 Sunny 73 22.8 70 21.1 90 90 SSW 7 11 30.00 1016 10 16 0.00 0.00
8:53 am 08:53 Sunny 77 25 70 21.1 79 79 SSW 9 15 30.00 1016 10 16 0.00 0.00
9:53 am 09:53 Sunny 78 25.6 70 21.1 76 76 SSW 8 13 29.98 1015 10 16 0.00 0.00
10:53 am 10:53 Sunny 83 28.3 72 22.2 70 70 SW 8 13 29.98 1015 10 16 0.00 0.00
11:53 am 11:53 Sunny 85 29.4 73 22.8 68 68 SW 15 24 29.98 1015 10 16 0.00 0.00
12:39 pm 12:39 Partly Cloudy 87 30.6 74 23.3 65 65 WSW 13 20 29.97 1015 10 16 0.00 0.00
12:53 pm 12:53 Partly Cloudy 87 30.6 73 22.8 63 63 WSW 12 19 29.97 1015 10 16 0.00 0.00
1:53 pm 13:53 Mostly Cloudy 87 30.6 73 22.8 63 63 WSW 14 22 29.96 1015 10 16 0.00 0.00
2:53 pm 14:53 Partly Cloudy 87 30.6 72 22.2 61 61 SW 12 19 29.94 1014 10 16 0.00 0.00
3:53 pm 15:53 Mostly Sunny 88 31.1 74 23.3 63 63 WSW 13 20 29.91 1013 10 16 0.00 0.00
4:53 pm 16:53 Mostly Sunny 88 31.1 73 22.8 61 61 SW 12 19 29.89 1012 10 16 0.00 0.00
5:53 pm 17:53 Partly Cloudy 88 31.1 71 21.7 57 57 SSW 15 24 29.88 1012 10 16 0.00 0.00
6:53 pm 18:53 Mostly Cloudy 86 30 72 22.2 63 63 SW 9 15 29.89 1012 10 16 0.00 0.00
7:53 pm 19:53 Cloudy 81 27.2 70 21.1 69 69 NNW 8 13 29.92 1013 10 16 0.00 0.00
8:53 pm 20:53 Cloudy 76 24.4 71 21.7 85 85 NW 3 6 29.93 1014 10 16 0.03 0.76
9:53 pm 21:53 Cloudy with Light Rain 73 22.8 73 22.8 100 100 Calm 29.93 1013 10 16 0.18 4.57
10:53 pm 22:53 Cloudy 76 24.4 74 23.3 94 94 VRB 7 11 29.97 1015 10 16 0.00 0.03
11:15 pm 23:15 Cloudy with Light Rain 74 23.3 73 22.8 97 97 VRB 7 11 29.97 1015 3 4 0.07 1.78
11:24 pm 23:24 Cloudy with Nearby Thunderstorms 73 23 73 23 100 100 NNW 13 20 29.97 1015 2 2 0.00 0.00
11:33 pm 23:33 Cloudy with Strong Thunderstorms 72 22.2 72 22.2 100 100 N 7 11 29.97 1015 1 2 0.38 9.65
11:38 pm 23:38 Cloudy with Thunderstorms 73 23 73 23 100 100 VRB 6 9 29.97 1015 3 5 0.00 0.00
11:45 pm 23:45 Cloudy with Strong Thunderstorms 73 23 N/A N/A VRB 5 7 29.97 1015 3 5 0.42 10.67
11:53 pm 23:53 Cloudy with Nearby Thunderstorms 73 23 N/A N/A NNE 3 6 29.99 1016 3 5 0.45 11.43

Powered by AerisWeather